Location: Unspecified
(0.0000°N, 0.0000°E)
Time: 07:27:03
(UTC+00:00)

Vanguard 2 Rocket - Pass Details

Date: 16 October 2022
Orbit: 555 x 3321 km, 32.9° (Epoch: 06 December)

Event Time Altitude Azimuth Distance (km) Brightness Sun altitude
Rises 15:53:11 0° 245° (WSW) 5,287 12.0 27.7°
Reaches altitude 10° 15:56:10 10° 248° (WSW) 4,596 12.1 27.0°
Maximum altitude 16:10:08 64° 327° (NNW) 3,121 10.1 23.5°
Drops below altitude 10° 16:30:10 10° 45° (NE) 6,268 10.7 18.6°
Sets 16:35:07 0° 48° (NE) 7,226 11.0 17.4°
